EW8061 Weather Reports


time (UTC)temp
C
wind
direction
speed
KPH
gust
KPH
rain 1hr
cm
rain 24hr
cm
rain mn
cm
humidity
%
barometer
mb
20260505153031 14 146 0.0 8.0 0.00 0.05 0.05 91 1005.6
20260505151513 13 146 0.0 6.4 0.00 0.05 0.05 91 1005.6
20260505124507 16 159 0.0 12.9 0.00 0.05 0.05 80 1005.3
20260505123004 16 131 4.8 14.5 0.00 0.05 0.05 80 1005.3
20260505121600 16 150 0.0 11.3 0.00 0.05 0.05 86 1005.6
20260505120112 15 150 3.2 11.3 0.00 0.05 0.05 89 1005.8
20260505114555 14 148 6.4 12.9 0.00 0.05 0.05 89 1006.0
20260505113051 14 126 6.4 16.1 0.00 0.05 0.05 88 1005.9
20260505111550 14 132 0.0 3.2 0.00 0.05 0.05 91 1006.1
20260505110148 13 132 0.0 0.0 0.00 0.05 0.05 91 1006.3
20260505101543 14 146 1.6 14.5 0.03 0.05 0.05 89 1006.6
20260505100042 13 138 1.6 8.0 0.03 0.05 0.05 92 1006.7
20260505094540 13 138 3.2 12.9 0.03 0.08 0.05 91 1006.7
20260505093039 13 136 3.2 11.3 0.00 0.05 0.05 91 1006.7
20260505091548 13 136 0.0 6.4 0.00 0.05 0.05 91 1006.7
20260505090038 13 137 3.2 11.3 0.00 0.05 0.05 91 1006.8
20260505084538 13 138 1.6 8.0 0.00 0.05 0.05 92 1006.8
20260505083041 13 142 0.0 8.0 0.00 0.05 0.05 93 1006.8
20260505081532 13 143 1.6 8.0 0.00 0.05 0.05 93 1006.9
20260505080030 12 143 1.6 4.8 0.00 0.05 0.05 93 1007.1
20260505074527 12 143 0.0 4.8 0.00 0.05 0.05 93 1007.1
20260505073024 12 143 0.0 0.0 0.00 0.05 0.05 93 1007.1
20260505071519 12 143 0.0 0.0 0.00 0.05 0.05 93 1007.3
20260505070017 11 143 0.0 1.6 0.00 0.05 0.05 93 1007.4
20260505064515 11 143 0.0 0.0 0.00 0.05 0.05 93 1007.5
20260505063013 11 143 0.0 0.0 0.03 0.05 0.05 93 1007.6
20260505061512 10 143 0.0 0.0 0.03 0.05 0.05 93 1007.6
20260505060011 10 143 0.0 4.8 0.03 0.05 0.05 92 1007.8
20260505054515 10 143 0.0 0.0 0.05 0.05 0.05 92 1007.7
20260505053005 10 143 0.0 1.6 0.03 0.05 0.03 92 1007.8
20260505051503 9 143 0.0 3.2 0.03 0.05 0.03 92 1007.7
20260505041608 9 143 0.0 0.0 0.00 0.03 0.00 91 1007.8
20260505040104 8 143 0.0 0.0 0.00 0.03 0.00 91 1007.9
20260505034611 8 143 0.0 0.0 0.00 0.03 0.00 91 1007.9
20260505033057 8 143 0.0 0.0 0.00 0.03 0.00 91 1008.0
20260505031555 8 143 0.0 0.0 0.00 0.03 0.00 91 1008.0
20260505024608 8 143 0.0 0.0 0.00 0.03 0.00 91 1008.3
20260505023051 8 143 0.0 0.0 0.00 0.03 0.00 90 1008.3
20260505021550 8 143 0.0 0.0 0.00 0.03 0.00 90 1008.5
20260505014548 8 143 0.0 0.0 0.00 0.03 0.00 90 1008.7
20260505013045 8 143 0.0 0.0 0.00 0.03 0.00 89 1008.9
20260505011547 8 143 0.0 0.0 0.00 0.03 0.00 88 1008.9
20260505010059 8 143 0.0 0.0 0.00 0.03 0.00 88 1009.1
20260505004558 8 143 0.0 0.0 0.00 0.03 0.00 88 1009.1
20260505003039 8 143 0.0 0.0 0.00 0.03 0.00 88 1009.3
20260505001540 8 143 0.0 0.0 0.00 0.03 0.00 88 1009.3
20260505000037 9 143 0.0 0.0 0.00 0.03 0.00 87 1009.2
20260504234533 9 143 0.0 0.0 0.00 0.03 0.00 87 1009.4
20260504233031 10 143 0.0 0.0 0.00 0.03 0.00 87 1009.4
20260504231528 10 143 0.0 0.0 0.00 0.03 0.00 87 1009.5
20260504230026 10 143 0.0 0.0 0.00 0.03 0.00 87 1009.7
20260504224532 11 143 0.0 1.6 0.00 0.03 0.00 86 1009.8
20260504223021 11 143 0.0 0.0 0.00 0.03 0.00 85 1009.7
20260504221518 11 143 0.0 4.8 0.00 0.03 0.00 85 1009.8
20260504220015 12 143 0.0 4.8 0.00 0.03 0.00 85 1009.7
20260504214514 12 143 0.0 0.0 0.00 0.03 0.03 84 1009.9
20260504213029 12 143 0.0 4.8 0.00 0.03 0.03 83 1010.1
20260504211513 12 143 0.0 0.0 0.00 0.03 0.03 83 1010.2
20260504210011 12 143 0.0 0.0 0.00 0.03 0.03 82 1010.4
20260504204512 13 143 0.0 0.0 0.00 0.03 0.03 82 1010.6
20260504203010 13 143 0.0 0.0 0.00 0.03 0.03 82 1010.7
20260504201509 13 143 0.0 0.0 0.00 0.03 0.03 81 1010.7
20260504200009 13 143 0.0 0.0 0.00 0.03 0.03 80 1010.6
20260504194515 13 143 0.0 0.0 0.00 0.03 0.03 79 1010.6
20260504193011 13 143 0.0 6.4 0.00 0.03 0.03 79 1010.5
20260504191507 14 143 0.0 1.6 0.00 0.03 0.03 78 1010.4
20260504190007 14 143 1.6 8.0 0.00 0.03 0.03 78 1010.4
20260504184519 14 143 0.0 14.5 0.00 0.03 0.03 77 1010.4
20260504183005 15 144 1.6 6.4 0.00 0.03 0.03 77 1010.3
20260504181505 15 144 1.6 12.9 0.00 0.03 0.03 77 1010.2
20260504180005 15 144 1.6 12.9 0.00 0.03 0.03 77 1010.2
20260504174503 15 145 1.6 11.3 0.00 0.03 0.03 76 1010.1
20260504173010 15 144 4.8 12.9 0.00 0.03 0.03 75 1010.2
20260504171502 15 157 6.4 12.9 0.00 0.03 0.03 75 1010.2